Regional Weather Roundup
Issued by NWS

Home | Current Version | Previous Version | Text Only | Print | Product List | Glossary On
Versions: 1 2 3 4 5 6 7 8 9 10 11 12 13 14 15 16 17 18 19 20 21 22 23 24 25 26 27 28 29 30 31 32 33 34 35 36 37 38 39 40 41 42 43 44 45 46 47 48 49 50
000
ASUS43 KTOP 310008
RWRKS

WEATHER ROUNDUP FOR KANSAS
NATIONAL WEATHER SERVICE GOODLAND KS
700 PM CDT MON MAR 30 2015

NOTE:  "FAIR" INDICATES FEW OR NO CLOUDS BELOW 12,000 FEET WITH NO
SIGNIFICANT WEATHER AND/OR OBSTRUCTIONS TO VISIBILITY.

KSZ001>006-013>018-027>032-041>047-310100-
NORTHWEST KANSAS

CITY           SKY/WX    TMP DP  RH WIND       PRES   REMARKS
GOODLAND       SUNNY     75  17  11 N10       30.01R
6HR MIN TEMP:  75; 6HR MAX TEMP:  78;

HAYS           SUNNY     81  25  12 N12       29.90S
HILL CITY      SUNNY     78  20  11 N17       29.94R
6HR MIN TEMP:  76; 6HR MAX TEMP:  84;

RUSSELL        SUNNY     80  27  14 NW14      29.87R
6HR MIN TEMP:  72; 6HR MAX TEMP:  84;

$$

KSZ061>065-074>080-084>089-310100-
SOUTHWEST KANSAS

CITY           SKY/WX    TMP DP  RH WIND       PRES   REMARKS
DODGE CITY     PTSUNNY   77  32  19 W5        29.95R
6HR MIN TEMP:  73; 6HR MAX TEMP:  83;

ELKHART          N/A     77  29  17 N5          N/A
GARDEN CITY    CLOUDY    77  27  15 CALM      29.96S
6HR MIN TEMP:  75; 6HR MAX TEMP:  80;

GREAT BEND     MOSUNNY   79  37  22 SW12      29.89S
LIBERAL        CLOUDY    75  34  22 S10       29.96F
PRATT          MOSUNNY   72  34  25 S10       29.95S
$$

KSZ066>073-081>083-090>101-310100-
SOUTHEAST KANSAS

CITY           SKY/WX    TMP DP  RH WIND       PRES   REMARKS
CHANUTE        CLEAR     69  35  28 S10       30.00S
6HR MIN TEMP:  66; 6HR MAX TEMP:  73;

COFFEYVILLE    CLEAR     69  39  33 S9        29.99F
6HR MIN TEMP:  67; 6HR MAX TEMP:  74;

HUTCHINSON     CLEAR     74  39  28 S16       29.93F
6HR MIN TEMP:  71; 6HR MAX TEMP:  78;

MEDICINE LODGE   N/A     75  38  26 S13G22    29.94F
NEWTON         CLEAR     72  37  28 S18       29.98F
PARSONS        CLEAR     70  37  29 S8        30.00F
6HR MIN TEMP:  67; 6HR MAX TEMP:  74;

WICHITA INTL   PTCLDY    74  37  26 S15       29.96F
6HR MIN TEMP:  70; 6HR MAX TEMP:  77;

WICHITA JABRA  CLEAR     72  37  28 S14       29.97F
6HR MIN TEMP:  69; 6HR MAX TEMP:  76;

WICHITA MCCONL CLEAR     72  39  30 S15       29.97F
WINFIELD       CLEAR     68  44  42 S8        30.00S
6HR MIN TEMP:  68; 6HR MAX TEMP:  76;

$$

KSZ007>012-019>026-033>040-048>060-102>105-310100-
NORTHEAST KANSAS

CITY           SKY/WX    TMP DP  RH WIND       PRES   REMARKS
CONCORDIA      CLEAR     77  35  21 S8        29.89F
6HR MIN TEMP:  72; 6HR MAX TEMP:  80;

EMPORIA        CLEAR     72  35  25 SW13      29.96F
6HR MIN TEMP:  69; 6HR MAX TEMP:  76;

LAWRENCE       CLEAR     71  30  21 S14       29.96S
6HR MIN TEMP:  69; 6HR MAX TEMP:  75;

MANHATTAN      CLEAR     74  39  28 SW15      29.92F
6HR MIN TEMP:  71; 6HR MAX TEMP:  78;

MARYSVILLE     CLEAR     73  37  27 SW12      29.90F
OLATHE IND     CLEAR     68  30  24 SW13      29.98S
6HR MIN TEMP:  67; 6HR MAX TEMP:  72; 6HR PCP: TRACE;

OLATHE EXE     CLEAR     68  31  25 SW7       29.97F
6HR MIN TEMP:  66; 6HR MAX TEMP:  71;

SALINA         CLEAR     76  39  26 S13       29.91F
6HR MIN TEMP:  73; 6HR MAX TEMP:  80;

TOPEKA BILLARD CLEAR     74  30  19 SW12G20   29.95S
6HR MIN TEMP:  68; 6HR MAX TEMP:  75;

TOPEKA FORBES  CLEAR     73  33  23 S10       29.95S
6HR MIN TEMP:  70; 6HR MAX TEMP:  77;

$$


USA.gov is the U.S. government's official web portal to all federal, state and local government web resources and services.